BSAT-4A

Last updated on Nov. 13, 2019, 4:20 a.m. UTC

1 42951U 17059B   19315.99327122 -.00000337  00000-0  00000+0 0  9990
2 42951   0.0607  65.4753 0000542 285.1743 167.6418  1.00272856  7794
UTC
Height (km)
Latitude
Longitude
Inclination
Orbital Period
UTC large
Height (km)
Speed (km/s)
/
Latitude / Longitude
Inclination (degrees)
Orbital Period (minutes)
Azimuth
Elevation
Range (km)
Doppler Factor
iOS Compass Heading
iOS Angle

Next 30 passes for location: Hong Kong

Rise time Rise Azimuth (degrees) Set time Set Azimuth (degrees) Duration Max altitude (degrees)

No matching passes for this satellites